Probability
0 0 0 0 0 0 0 0 0 0 0 0 0 0 0 0 0 0 1 2 3 3 2 2 2 1 0 1 2 3 2 1 2 2 1 0 0 0 0 0 0 0 0 0
0 0 0 0 0 0 0 0 0 0 0 0 0 0 0 0 0 0 1 2 2 2 1 1 1 0 0 0 1 2 1 0 1 2 2 1 0 0 0 0 0 0 0 0
0 0 0 0 0 0 0 0 0 0 0 0 0 0 0 0 0 0 0 1 1 1 0 0 0 0 0 0 1 1 1 0 0 1 2 2 1 0 0 0 0 0 0 0
0 0 0 0 0 0 0 0 0 0 0 0 0 0 0 0 0 0 0 0 0 0 0 0 0 0 1 0 0 0 0 0 0 0 1 2 1 0 0 0 0 0 0 0
0 0 0 0 0 0 0 0 0 0 0 0 0 0 0 0 0 0 0 0 0 0 0 0 0 0 0 0 0 0 0 0 0 0 0 1 1 0 0 0 0 0 0 0
0 0 0 0 0 0 0 0 0 0 0 0 0 0 0 0 0 0 0 0 0 0 0 0 0 0 0 0 0 0 0 0 0 0 0 0 0 0 0 0 0 0 0 0
0 0 0 0 0 0 0 0 0 0 0 0 0 0 0 0 0 0 0 0 0 0 0 0 0 0 0 0 0 0 1 1 1 0 0 0 0 0 1 0 0 0 0 0
0 0 0 0 0 0 0 0 0 0 0 0 0 0 0 0 0 0 0 0 0 0 0 0 0 0 0 0 0 1 2 2 2 1 0 0 0 0 0 0 0 0 0 0
0 0 0 0 0 0 0 0 0 0 0 0 0 0 0 0 0 0 0 0 0 0 0 0 0 0 0 1 0 1 2 3 3 1 0 0 0 0 0 0 0 0 0 0
0 0 0 0 0 0 0 0 0 0 0 0 0 0 0 0 0 0 0 0 0 0 0 0 0 0 0 0 0 0 1 2 3 2 1 0 0 0 0 0 0 0 0 0
0 0 0 0 0 0 0 0 0 0 0 0 0 0 0 0 0 0 0 0 0 0 0 0 0 0 0 0 0 0 1 2 3 3 1 0 0 0 0 0 0 0 0 0
0 0 0 0 0 0 0 0 0 0 0 0 0 0 0 0 0 0 0 0 0 0 0 0 0 0 0 0 0 1 2 3 4 4 3 2 1 1 0 0 0 0 0 0
0 0 0 0 0 0 0 0 0 0 0 0 0 0 0 0 0 0 0 0 0 0 0 0 0 0 0 0 0 1 2 3 4 5 5 5 3 2 1 0 0 0 0 0
0 0 0 0 0 0 0 0 0 0 0 0 0 0 0 0 0 0 0 0 0 0 0 0 0 0 0 0 0 1 1 3 3 4 6 6 4 3 1 1 0 0 0 0
0 0 0 0 0 0 0 0 0 0 0 0 0 0 0 0 0 0 0 0 0 0 0 0 0 0 0 0 0 0 1 2 3 4 5 4 3 1 1 1 1 0 0 0
0 0 0 0 0 0 0 0 0 0 0 0 0 0 0 0 0 0 0 0 0 0 0 0 0 0 0 0 0 0 1 1 2 3 4 3 1 0 0 0 0 0 0 0
0 0 0 0 0 0 0 0 0 0 0 0 0 0 0 0 0 0 0 0 0 0 0 0 0 0 0 0 0 0 0 0 1 2 3 2 1 0 0 0 0 0 0 0
0 0 0 0 0 0 0 0 0 0 0 0 0 0 0 0 0 0 0 0 0 0 0 0 0 0 0 0 0 0 0 0 0 1 1 1 0 0 0 0 0 0 0 0
0 0 0 0 0 0 0 0 0 0 0 0 0 0 0 0 0 0 0 0 0 0 0 0 0 0 0 0 0 0 0 0 0 0 0 0 0 0 0 0 0 0 0 0
0 0 0 0 0 0 0 0 0 0 0 0 0 0 0 0 0 0 0 0 0 0 0 0 0 0 0 0 0 0 0 0 0 0 0 0 0 0 0 0 0 0 0 0
0 0 0 0 0 0 0 0 0 0 0 0 0 0 0 0 0 0 0 0 0 0 0 0 0 0 0 0 0 0 0 0 0 0 0 0 0 0 0 0 0 0 0 0
0 0 0 0 0 0 0 0 0 0 0 0 0 0 0 0 0 0 0 0 0 0 0 0 0 0 0 0 0 0 0 0 0 0 0 0 0 0 0 0 0 0 0 0
0 0 0 0 0 0 0 0 0 0 0 0 0 0 0 0 0 0 0 0 0 0 0 0 0 0 0 0 0 0 0 0 0 0 0 0 0 0 0 0 0 0 0 0
0 0 0 0 0 0 0 0 0 0 0 0 0 0 0 0 0 0 0 0 0 0 0 0 0 0 0 0 0 0 0 0 0 0 0 0 0 0 0 0 0 0 0 0
0 0 0 0 0 0 0 0 0 0 0 0 0 0 0 0 0 0 0 0 0 0 0 0 0 0 0 0 0 0 0 0 0 0 0 0 0 0 0 0 0 0 0 0
0 0 0 0 0 0 0 0 0 0 0 0 0 0 0 0 0 0 0 0 0 0 0 0 0 0 0 0 0 0 0 0 0 0 0 0 0 0 0 0 0 0 0 0
0 0 0 0 0 0 0 0 0 0 0 0 0 0 0 0 0 0 0 0 0 0 0 0 0 0 0 0 0 0 0 0 0 0 0 0 0 0 0 0 0 0 0 0
Wind_Speed
5 3 3 4 6 6 9 10 9 6 6 5 4 3 2 2 2 2 2 2 2 1 1 2 2 2 2 3 2 2 2 2 2 2 2 1 2 2 2 2 2 2 2 2
4 3 3 5 7 8 9 9 9 9 8 5 3 2 2 3 3 3 2 2 1 1 1 1 1 1 2 3 3 3 3 2 1 1 2 2 2 2 2 2 2 2 2 2
5 2 4 6 6 7 6 6 7 9 6 3 2 3 4 3 4 4 3 2 2 2 2 1 1 1 2 2 3 3 3 2 2 2 2 2 2 2 2 2 2 2 2 3
4 3 7 1 2 2 5 5 5 5 4 3 3 2 2 2 3 3 3 3 2 2 2 2 1 1 2 2 3 3 3 2 2 1 2 1 2 2 2 2 2 2 2 3
4 6 6 2 1 2 4 4 3 5 4 2 0 1 2 1 2 2 2 2 2 2 2 2 2 2 2 2 2 2 2 2 2 2 2 2 2 2 2 2 2 2 3 3
5 6 5 0 1 2 4 4 1 2 3 1 2 3 1 1 1 1 1 1 2 2 2 2 2 2 3 2 2 2 2 2 2 2 2 2 2 2 2 2 3 3 3 3
7 7 4 2 1 3 5 1 2 0 1 2 2 3 3 1 0 0 1 1 2 2 2 2 2 3 3 3 2 2 2 2 2 2 2 2 2 2 2 2 2 3 3 3
5 7 4 3 3 3 2 3 1 1 0 1 1 3 2 1 1 0 1 2 2 2 2 2 2 3 3 3 2 2 2 2 2 2 2 2 2 2 2 2 3 3 3 3
4 2 2 3 1 1 2 1 1 0 0 1 1 1 2 1 1 1 0 1 2 2 2 1 2 3 3 2 2 2 2 2 2 2 2 2 2 2 2 2 2 2 2 3
4 4 2 3 3 2 1 1 1 1 1 1 0 0 1 1 1 1 0 0 1 2 2 2 1 2 2 2 2 3 3 3 2 2 2 2 1 1 2 1 2 2 3 3
6 4 3 4 5 4 2 1 1 1 1 1 1 1 1 1 1 1 0 0 1 2 2 2 2 2 2 2 3 3 3 2 2 2 2 2 1 1 2 2 2 3 3 3
6 5 4 4 4 4 3 3 2 2 2 1 1 1 1 1 1 1 1 1 1 2 2 2 2 2 2 2 3 3 2 2 1 1 1 2 2 2 1 2 3 4 5 5
5 3 3 2 3 4 4 3 3 3 2 2 2 2 2 2 1 1 1 2 2 2 2 2 2 2 2 3 3 3 3 2 2 2 2 2 2 2 2 2 2 3 4 4
4 3 4 4 3 3 3 2 2 2 1 1 1 1 2 2 2 2 2 2 2 2 2 3 3 3 2 3 3 4 3 2 2 2 2 2 2 3 3 3 3 3 3 3
6 5 4 2 2 3 3 3 2 2 1 1 1 1 2 2 2 2 2 2 2 2 2 2 3 2 2 3 3 4 3 2 2 2 2 2 2 3 3 3 3 3 3 2
6 5 4 4 4 4 4 4 3 3 2 2 2 2 3 3 3 2 2 2 2 3 3 3 3 2 2 3 3 3 3 2 2 2 2 2 2 3 3 3 3 3 3 3
7 7 7 6 6 5 5 5 4 3 3 3 3 3 2 3 3 2 2 2 2 3 3 3 3 2 2 3 3 3 2 2 3 3 2 2 3 3 3 3 3 3 3 3
8 7 7 7 6 6 5 4 4 3 3 3 3 3 3 3 3 3 2 2 2 2 2 2 2 2 2 3 3 2 2 2 3 3 3 3 3 3 3 4 4 4 3 3
6 5 5 5 5 5 5 4 4 3 3 3 3 3 4 4 3 3 2 2 3 3 2 2 2 3 3 2 2 3 3 3 3 3 3 3 3 3 3 4 4 4 4 3
5 5 4 4 4 4 4 3 3 3 3 3 3 3 3 3 3 3 3 3 3 3 2 2 2 3 3 3 3 3 3 3 4 3 3 3 3 3 3 3 4 4 4 4
6 5 5 4 4 3 3 4 3 3 3 3 4 4 4 3 3 3 3 4 3 2 2 2 2 2 2 2 3 3 3 3 4 4 3 3 3 3 4 4 4 4 4 4
6 5 5 5 4 4 3 3 3 4 3 4 4 4 4 4 3 4 4 3 3 2 2 2 2 2 2 2 2 3 3 3 3 3 3 3 3 4 4 4 4 4 4 4
5 5 5 5 5 4 3 4 4 4 4 4 4 4 4 4 3 3 4 2 2 2 3 2 2 2 2 2 2 3 3 3 3 3 3 3 3 4 4 4 4 4 4 4
5 5 4 4 4 4 4 4 3 3 4 4 4 4 4 3 3 3 3 2 2 2 3 2 2 2 3 3 3 3 3 3 3 3 3 3 3 3 4 4 4 4 4 5
4 4 5 5 5 4 4 4 4 4 4 3 3 3 3 3 3 3 2 2 2 3 3 2 3 3 3 3 3 3 3 3 3 3 3 3 3 4 4 4 4 4 4 4
4 4 4 4 4 3 3 3 3 3 3 3 3 2 2 2 3 2 2 3 3 3 2 2 2 3 3 3 3 3 3 3 3 3 4 3 4 4 4 4 5 4 4 4
4 3 3 3 3 3 3 3 4 4 3 3 3 3 3 2 2 2 3 2 2 2 2 2 2 2 3 3 3 3 3 3 3 3 3 3 3 3 4 5 4 4 4 4
Wind_Direction
268 280 252 259 254 229 234 247 258 265 270 280 267 247 217 190 177 168 155 145 142 145 141 146 154 171 169 162 159 162 166 177 192 198 200 210 224 238 245 258 267 270 269 271
240 228 232 260 260 239 241 252 251 259 273 290 283 229 207 200 197 203 198 195 192 185 158 167 163 173 175 168 166 166 169 173 173 195 198 211 226 237 250 262 268 267 264 266
251 224 251 255 254 232 219 234 246 255 266 255 237 222 214 207 212 214 211 211 213 212 199 200 204 191 180 172 168 168 166 164 172 198 208 220 227 232 248 258 268 273 268 269
261 243 247 360 47 235 226 260 261 268 279 267 266 258 226 213 220 221 213 214 220 219 208 204 197 193 174 169 172 175 175 176 187 216 226 230 236 247 256 259 259 267 278 276
240 251 257 250 199 232 231 257 279 261 267 281 331 187 193 202 236 238 225 221 213 208 201 193 180 178 174 170 176 181 190 198 204 216 220 227 234 248 259 263 263 267 275 280
234 249 257 342 43 277 237 243 22 267 258 224 204 230 198 83 281 235 214 212 202 194 193 188 176 174 181 182 185 201 216 221 218 222 224 234 241 248 255 260 263 268 272 278
237 246 259 34 37 199 222 353 48 291 218 185 230 333 27 59 31 171 181 179 184 191 194 193 181 184 191 195 210 217 222 223 220 225 235 243 246 247 253 258 262 268 271 277
226 236 241 105 157 207 356 37 49 44 148 191 16 41 53 63 43 102 165 175 182 188 197 200 194 197 198 208 221 226 219 223 229 234 243 250 251 253 258 265 265 271 276 283
233 253 36 156 182 10 2 18 35 42 121 140 91 47 37 42 32 32 121 167 173 183 195 205 208 214 215 208 210 219 223 224 230 236 238 236 239 252 256 261 272 279 280 287
237 243 239 231 239 253 247 284 326 314 160 175 180 35 353 3 12 14 297 166 178 186 200 214 223 230 236 212 212 213 222 227 225 231 240 226 232 245 257 260 273 280 286 289
238 250 251 236 239 243 242 274 283 265 229 223 240 242 291 317 329 332 318 252 228 225 230 237 231 229 231 214 212 218 220 226 231 236 249 243 240 262 258 259 286 283 281 281
234 223 228 232 226 230 233 237 235 229 230 234 242 250 268 286 300 309 285 262 256 257 254 247 236 236 235 223 220 221 219 221 232 238 252 262 258 260 297 281 291 289 299 300
255 245 240 251 230 223 228 231 225 221 217 220 243 251 263 282 288 300 281 268 259 253 252 249 240 239 243 236 228 230 233 232 238 239 245 256 258 258 267 282 279 271 281 295
223 207 213 218 221 215 216 209 203 209 220 220 221 232 255 274 283 281 283 282 270 254 249 246 240 239 242 236 233 238 240 244 246 241 246 253 260 261 263 269 275 276 276 283
217 226 230 213 194 193 188 178 179 187 193 220 222 227 239 255 268 278 283 287 272 256 253 253 250 248 243 238 237 238 237 236 241 246 248 253 263 264 265 268 275 283 289 290
211 215 212 203 198 193 193 199 209 215 219 230 243 253 256 260 270 276 272 262 256 260 261 260 260 259 240 232 234 234 231 246 259 248 245 254 265 269 271 272 276 279 283 293
198 205 205 207 208 208 212 218 224 224 228 235 246 256 261 263 265 264 264 263 263 269 264 255 260 264 246 236 233 234 229 217 239 249 244 252 262 265 269 272 274 278 283 296
219 220 213 211 209 210 216 221 226 228 234 242 243 246 250 254 262 267 267 261 260 271 278 276 276 266 249 241 239 239 232 225 227 245 251 254 263 266 267 267 270 276 283 284
213 217 214 212 211 212 215 218 223 227 229 224 226 237 245 252 261 266 262 253 255 266 282 289 285 257 249 251 261 240 237 235 236 243 248 256 260 262 268 273 275 276 279 278
201 202 201 202 206 211 213 211 210 216 223 223 227 234 240 243 244 249 250 252 260 274 286 288 257 252 252 244 252 247 241 243 247 246 248 247 249 256 262 269 275 279 279 276
194 192 191 193 198 206 209 206 204 210 218 222 228 233 240 244 242 241 246 258 270 284 273 262 250 258 260 259 240 245 246 247 248 248 249 252 256 260 262 264 268 273 276 277
193 191 193 195 197 202 205 209 210 213 217 224 234 240 243 245 247 248 248 259 277 291 261 242 247 274 290 274 242 248 252 255 257 259 259 260 262 266 269 271 270 272 274 276
192 194 197 200 203 204 204 209 214 218 221 228 233 237 240 244 243 245 255 265 268 257 253 248 273 270 256 244 245 245 251 257 261 264 265 266 267 269 272 274 277 278 276 276
193 195 199 200 200 203 210 215 222 227 232 239 239 238 239 241 244 244 262 264 259 249 248 251 248 240 237 240 243 247 251 256 262 266 268 268 269 272 275 278 280 281 280 280
198 195 195 197 203 210 214 214 219 226 230 235 238 237 237 240 248 251 249 248 242 234 244 235 227 228 232 243 244 250 254 258 267 270 267 269 271 273 275 277 278 279 279 279
199 201 205 213 216 212 209 210 216 219 220 225 231 231 230 233 240 241 239 237 236 241 244 236 227 227 237 245 249 252 255 256 254 257 263 269 270 273 275 276 277 277 277 277
200 202 206 209 210 212 212 214 219 223 224 226 234 232 226 226 227 229 232 233 231 233 239 242 239 235 239 247 254 255 257 259 260 262 263 265 268 270 272 274 276 277 278 277